Location: Llangeitho
(52.2167°N, 4.0333°W)
Time: 07:27:33
(UTC+00:00)

Daily predictions for brighter satellites

Satellite Brightness Start Highest point End
(mag) Time Altitude Azimuth Time Altitude Azimuth Time Altitude Azimuth
Cosmos 2266 Rocket 4.1 17:20:57 10° N 17:27:13 89° ENE 17:33:33 10° S
H-2A R/B 3.5 17:25:09 10° E 17:28:56 20° NE 17:32:44 10° N
Cosmos 304 Rocket 4.2 17:24:12 10° SW 17:28:58 68° WNW 17:33:45 10° NNE
Cosmos 1602 Rocket 4.4 17:26:19 10° NNW 17:30:44 58° W 17:35:07 10° S
CZ-4 R/B 2.7 17:28:14 10° ESE 17:31:02 19° ENE 17:33:48 10° NNE
Cosmos 2263 Rocket 3.9 17:27:33 10° NNW 17:31:11 17° NNE 17:34:47 10° ENE
GEOS 3 Rocket 4.3 17:26:18 10° E 17:31:15 39° NNE 17:36:15 10° NW
Cosmos 1408 4.4 17:31:18 10° NNE 17:33:12 13° ENE 17:35:05 10° E
BREEZE-M DEB (TANK) 3.9 17:30:06 10° WSW 17:33:29 73° SSE 17:45:25 10° ENE
Cosmos 1356 Rocket 3.7 17:29:36 10° SSW 17:33:53 79° WNW 17:38:14 10° N
CZ-4C R/B 3.4 17:31:16 10° N 17:34:29 63° WNW 17:37:47 10° SSW
NOSS 3-4 (A) 4.4 17:31:14 10° NW 17:37:16 37° NNE 17:43:56 10° E
NOSS 3-4 (C) 4.4 17:31:20 10° NW 17:37:22 37° NNE 17:44:01 10° E
CZ-4C R/B 3.7 17:32:12 10° WNW 17:37:37 31° N 17:44:00 10° ENE
NOSS 2-2 (D) 4.4 17:34:16 10° NW 17:39:26 81° NE 17:46:39 10° SE
NOAA 12 4.2 17:34:37 10° SSE 17:39:56 86° WSW 17:45:18 10° NNW
Cosmos 1953 Rocket 3.7 17:35:52 10° N 17:40:13 55° ENE 17:44:34 10° SSE
Cosmos 1300 3.2 17:40:10 10° SSE 17:43:41 37° E 17:47:15 10° NNE
SL-4 R/B 1.7 17:42:04 10° W 17:45:34 82° S 17:49:04 11° E
Cosmos 1703 4.5 17:42:52 10° NNW 17:46:41 47° W 17:50:29 10° SSW
Cosmos 1697 Rocket 4.3 17:44:22 10° SE 17:47:03 14° E 17:49:37 10° ENE
Cosmos 2058 Rocket 3.9 17:43:12 10° SSE 17:47:06 30° E 17:51:02 10° NNE
Cosmos 1331 Rocket 4.1 17:42:14 10° S 17:47:15 54° ESE 17:52:17 10° NNE
Cosmos 1346 Rocket 4.0 17:44:47 10° N 17:48:00 23° ENE 17:51:11 10° ESE
USA 305 2.9 17:44:57 10° WNW 17:49:17 80° NNE 17:53:27 11° E
IRS-1C Rocket 4.2 17:44:36 10° SE 17:49:45 56° ENE 17:54:55 10° N
CZ-2D R/B 3.9 17:46:20 10° SE 17:49:47 34° ENE 17:53:15 10° N
NOSS 2-1 (C) 4.4 17:46:56 10° W 17:50:04 34° NNW 17:53:41 10° NE
Cosmos 1825 3.9 17:48:01 10° NNE 17:50:11 14° ENE 17:51:37 12° E
SeaSat 1 3.6 17:46:40 10° E 17:50:41 26° NE 17:54:43 10° NNW
Cosmos 1953 3.9 17:47:25 10° SW 17:51:08 38° WNW 17:54:54 10° N
Cosmos 44 3.6 17:50:08 10° SSW 17:54:24 42° ESE 17:58:57 10° NE
NOSS 2-1 (D) 4.5 17:52:15 10° W 17:55:21 32° NNW 17:58:56 10° NE
USA 306 2.9 17:51:22 10° WNW 17:55:40 83° NNE 17:59:35 12° ESE
NOAA 11 4.2 17:51:45 10° SSE 17:57:13 85° ENE 18:02:41 10° NNW
USA 215 3.5 17:51:39 11° E 17:57:52 60° N 18:04:18 10° WNW
SAR-Lupe-4 4.0 17:55:01 10° NNE 17:58:26 39° E 18:01:49 10° S
ERS-2 2.0 17:54:57 10° NNE 17:58:36 71° ESE 18:02:14 10° S
ATLAS 2AS CENTAUR R/B 3.6 17:52:05 10° NW 17:59:23 40° NNE 18:05:17 14° E
BREEZE-M R/B 3.4 17:56:06 10° WSW 17:59:31 66° S 18:05:18 13° E
Cosmos 1818 4.4 17:56:38 10° WSW 18:01:55 49° NW 18:07:14 10° NE
Cosmos 968 Rocket 3.6 17:56:59 10° NNW 18:02:08 53° ENE 18:07:12 10° SE
Cosmos 1340 2.7 17:59:25 10° N 18:03:09 53° ENE 18:06:51 10° SSE
Cosmos 2297 Rocket 2.2 18:00:49 10° NNW 18:06:32 82° ENE 18:12:13 10° SSE
COSMO-SKYMED 1 2.9 18:03:02 10° NNE 18:07:12 42° E 18:11:19 10° S
Cosmos 2369 Rocket 3.9 18:02:31 10° W 18:07:26 29° NW 18:12:25 10° NNE
Cosmos 1076 Rocket 4.5 18:04:30 10° N 18:08:06 26° ENE 18:11:35 10° SE
H-2A R/B 3.2 18:05:00 10° N 18:09:00 44° WNW 18:12:54 10° SW
In-Cosmos 22 Rocket 4.1 18:03:55 10° N 18:09:14 63° ENE 18:14:38 10° SSE
Aureole 3 Rocket 3.5 18:08:36 10° SSE 18:12:38 51° E 18:18:13 10° NNE
Cosmos 1110 Rocket 4.0 18:10:39 10° SSW 18:15:54 85° WNW 18:21:10 10° NNE
SAR-Lupe-1 4.1 18:12:47 10° NNE 18:16:22 58° ESE 18:19:54 10° S
S3M 4.4 18:11:19 10° SSE 18:16:47 36° E 18:22:19 10° NNE
Cosmos 1302 Rocket 4.1 18:13:08 10° S 18:18:15 54° ESE 18:23:25 10° NNE
SL-08 ROCKET BODY 4.5 18:12:54 10° N 18:18:54 57° ENE 18:24:58 10° SSE
Lacrosse 5 2.4 18:15:07 10° W 18:20:03 49° N 18:23:30 19° ENE
FALCON 9 DEB 3.1 18:16:55 10° W 18:20:22 79° N 18:22:07 27° E
FALCON 9 DEB 3.8 18:19:28 10° SW 18:22:27 34° SSE 18:23:30 27° ESE
ERBS 3.3 18:19:20 10° WNW 18:22:27 34° N 18:24:02 22° NE
Cosmos 1486 Rocket 4.0 18:17:20 10° NNW 18:22:43 76° ENE 18:28:01 10° SSE
Cosmos 292 Rocket 3.7 18:18:33 10° SSW 18:23:21 82° ESE 18:28:14 10° NNE
Okean O Rocket 3.6 18:19:37 10° SSW 18:23:31 32° W 18:27:27 10° NNW
YAOGAN 1 2.6 18:20:38 10° SSE 18:24:50 54° ENE 18:29:05 10° N
Aureole 3 2.5 18:23:09 10° S 18:26:11 61° E 18:29:08 10° NNE
FALCON 9 DEB 3.7 18:23:36 10° SW 18:26:36 38° SSE 18:27:30 30° ESE
ADEOS Rocket 4.2 18:22:35 10° N 18:28:34 48° WNW 18:35:10 10° SW
SKYMED 3 4.5 18:26:56 10° NNE 18:31:18 71° ESE 18:35:38 10° S
Cosmos 1455 3.3 18:28:57 10° SSE 18:31:13 25° ESE 18:31:13 25° ESE
Meteor 2-8 Rocket 4.4 18:26:24 10° S 18:32:28 71° E 18:38:37 10° NNE
Cosmos 1503 Rocket 4.1 18:27:20 10° NNW 18:32:30 57° ENE 18:37:12 12° SE
CZ-2C R/B 3.2 18:29:18 10° SSE 18:35:02 69° ENE 18:40:36 10° N
Cosmos 1726 Rocket 3.9 18:31:19 10° SSW 18:35:40 67° WNW 18:40:03 10° N
Cosmos 2219 3.7 18:31:09 10° NW 18:36:51 62° WSW 18:42:30 10° SSE
CZ-4B R/B 2.6 18:34:05 10° N 18:37:11 41° WNW 18:40:12 10° SW
USA 307 3.0 18:34:21 10° WNW 18:38:39 74° SSW 18:40:52 27° ESE
FALCON 9 DEB 3.4 18:35:33 10° SW 18:38:39 43° SSE 18:39:10 39° SE
Cosmos 1939 Rocket 3.6 18:37:47 10° S 18:41:40 53° W 18:45:31 10° NNW
Cosmos 1943 Rocket 4.5 18:38:13 10° WNW 18:41:41 17° NNW 18:45:09 10° NNE
Cosmos 2228 4.2 18:38:29 10° SW 18:42:33 43° WNW 18:46:41 10° N
USA 308 3.0 18:39:12 10° WNW 18:43:29 70° SSW 18:45:31 30° SE
Cosmos 1354 Rocket 4.0 18:38:51 10° NNW 18:44:05 62° ENE 18:47:52 19° SE
Meteor 2-10 Rocket 3.6 18:40:27 10° S 18:45:33 52° E 18:50:31 10° NNE
Cosmos 2082 3.6 18:39:50 10° NNW 18:45:37 78° ENE 18:50:45 13° SE
Cosmos 1553 Rocket 3.9 18:39:49 10° S 18:46:09 75° E 18:52:25 10° NNE
Helios 1A Rocket 3.4 18:45:02 10° S 18:49:06 63° WSW 18:53:12 10° NNW
FALCON 9 DEB 3.2 18:47:04 10° SW 18:50:12 51° SSE 18:50:17 51° SSE
Cosmos 1689 Rocket 2.4 18:48:40 10° N 18:51:32 62° WNW 18:54:23 10° SSW
ATLAS 5 CENTAUR R/B 3.5 18:48:15 10° WNW 18:52:04 24° N 18:55:00 15° NE
Meteor 2-15 Rocket 4.5 18:48:04 10° S 18:54:03 57° E 19:00:04 10° NNE
SKYMED 2 3.8 18:51:00 10° N 18:55:22 70° WNW 18:59:41 10° SSW
Cosmos 2151 3.7 18:52:56 10° N 18:56:04 33° NE 18:56:04 33° NE
Okean-O 3.1 18:52:31 10° S 18:56:55 63° WSW 19:01:21 10° NNW
Cosmos 1992 Rocket 4.1 18:52:17 10° S 18:57:16 48° ESE 18:59:48 27° NE
ARGOS 3.1 18:54:41 16° SE 18:58:54 60° ENE 19:04:16 10° N
SL-08 RB Rocket 4.0 19:00:38 42° ENE 19:00:42 42° ENE 19:04:58 10° N
Cosmos 1400 Rocket 3.5 18:57:31 10° SSW 19:01:34 57° WNW 19:05:37 10° N
Cosmos 2369 4.0 18:56:50 10° S 19:02:09 41° ESE 19:03:11 38° E
PSLV R/B 4.2 18:58:39 10° N 19:02:51 70° WNW 19:06:58 10° SSW
Cosmos 1844 Rocket 4.3 19:00:46 10° NNW 19:04:36 18° NNE 19:05:18 18° NE
Cosmos 2058 3.1 19:00:54 10° NNW 19:05:00 72° W 19:09:04 10° S
Cosmos 1892 3.6 19:01:17 10° NNW 19:05:04 50° W 19:08:49 10° S
Cosmos 1656 3.6 18:59:33 10° SSW 19:05:08 82° ESE 19:10:04 14° NNE
CZ-4 R/B 2.1 19:01:58 10° S 19:05:45 51° W 19:09:32 10° NNW
Meteor 2-15 4.3 19:00:17 10° S 19:06:26 83° E 19:12:36 10° NNE
H-2A R/B 2.1 19:02:13 10° SSE 19:07:39 87° ENE 19:13:10 10° NNW
Ariane Rocket 3.4 19:07:51 40° ENE 19:07:54 40° ENE 19:12:38 10° N
Geosat 4.1 19:06:43 42° ENE 19:07:54 50° ESE 19:12:46 10° SSW
Cosmos 1408 2.9 19:05:01 10° NNW 19:08:38 66° W 19:11:40 14° S
Cosmos 1745 Rocket 4.1 19:02:22 10° NNW 19:08:41 79° W 19:15:01 10° S
GEOS 3 Rocket 3.8 19:05:41 24° SE 19:09:02 75° SW 19:14:27 10° NW
Cosmos 220 Rocket 3.9 19:06:12 10° S 19:10:31 63° ESE 19:10:52 60° E
Cosmos 2227 Rocket 3.2 19:05:12 10° NW 19:10:35 46° WSW 19:15:56 10° S
Cosmos 2263 Rocket 2.5 19:11:04 10° NNW 19:16:35 47° NE 19:17:16 45° ENE
CSL-04 Rocket 3.8 19:11:25 10° SSE 19:16:59 80° WSW 19:22:31 10° NNW
Timation 1 Rocket 4.3 19:11:31 10° NNW 19:17:36 89° NE 19:20:34 32° SSE
Cosmos 1346 Rocket 4.0 19:20:46 10° NNW 19:24:33 41° W 19:28:18 10° SSW
SL-4 R/B 2.2 19:21:30 10° W 19:24:38 56° SW 19:24:38 56° SW
Meteor 2-1 Rocket 4.1 19:19:41 10° SSW 19:25:12 89° W 19:30:48 10° NNE
Cosmos 1825 2.5 19:22:21 10° NNW 19:26:08 65° W 19:26:28 61° SW
CZ-4C R/B 3.2 19:21:15 10° NW 19:27:40 49° NNE 19:29:36 40° ENE
SeaSat 1 2.4 19:26:16 46° SSE 19:27:46 82° WSW 19:32:45 10° NNW
NOSS 3-4 (A) 3.7 19:22:18 10° NW 19:29:08 78° NE 19:31:39 45° ESE
USA 305 3.7 19:25:05 10° WNW 19:29:09 42° SSW 19:29:36 40° SSW
NOSS 3-4 (C) 3.7 19:22:25 10° NW 19:29:14 78° NE 19:31:43 45° ESE
CRYOSAT 2 4.5 19:25:00 10° N 19:29:51 74° W 19:34:42 10° SSW
Cosmos 1697 Rocket 2.5 19:24:25 10° SSW 19:30:01 72° ESE 19:31:25 50° NE
Cosmos 2184 Rocket 4.5 19:25:44 10° N 19:31:04 41° NE 19:31:04 41° NE
Cosmos 1315 Rocket 3.2 19:28:49 10° SSW 19:32:10 59° SW 19:32:10 59° SW
USA 306 3.9 19:31:32 10° WNW 19:35:31 39° SW 19:35:44 38° SSW
Cosmos 44 4.2 19:31:14 10° WSW 19:35:39 43° NW 19:37:30 30° NNE
DEBRIS 4.3 19:19:24 10° WSW 19:35:44 57° SSE 19:36:50 50° SE
Cosmos 1709 Rocket 4.0 19:32:04 10° NNW 19:38:28 82° W 19:44:29 12° S
USA 215 3.2 19:39:00 54° ESE 19:40:41 83° NNE 19:47:15 10° WNW
NOSS 3-3 (A) 3.8 19:35:01 10° SSW 19:40:53 70° SE 19:41:47 61° E
NOSS 3-3 (C) 3.8 19:35:07 10° SSW 19:41:01 70° SE 19:41:53 62° E
SJ 16-02 3.4 19:39:44 10° N 19:41:07 17° N 19:41:07 17° N
MOS 1 Rocket 3.6 19:41:43 10° N 19:46:18 66° WNW 19:51:09 10° SSW
ATLAS 2AS CENTAUR R/B 2.7 19:43:40 10° NW 19:51:21 82° NE 19:52:43 62° ESE
Cosmos 1777 Rocket 4.0 19:46:14 10° NNW 19:51:06 77° NNW 19:51:06 77° NNW
Cosmos 2074 Rocket 4.2 19:45:52 10° N 19:51:03 52° NE 19:51:03 52° NE
Cosmos 1980 Rocket 3.7 19:47:10 10° SSW 19:49:11 22° S 19:49:11 22° S
IRS-1A Rocket 4.1 19:53:27 86° ESE 19:53:33 87° ENE 19:59:06 10° NNW
COSMOS 2455 4.2 19:50:08 10° NNW 19:55:08 26° NNE 19:55:08 26° NNE
Meteor 2-17 Rocket 4.3 19:49:08 10° N 19:55:02 75° ENE 19:55:02 75° ENE
Resurs 01 Rocket 4.1 20:02:02 13° N 20:02:02 13° N 20:02:38 10° N
MOS 1 4.2 20:00:46 84° N 20:00:46 84° N 20:06:18 10° NNW
Cosmos 2315 Rocket 3.9 19:55:14 10° S 20:01:26 84° W 20:07:41 10° N
MetOp-A 4.3 20:03:23 69° NNW 20:03:23 69° NNW 20:08:05 10° NNW
Lacrosse 5 2.4 19:58:33 10° WNW 20:02:41 53° NNW 20:02:41 53° NNW
Cosmos 2227 4.2 19:58:31 10° NNW 20:03:41 75° NNW 20:03:41 75° NNW
Cosmos 1455 4.5 20:04:29 10° SW 20:06:17 21° WSW 20:06:17 21° WSW
Cosmos 2360 4.4 20:03:30 10° SSW 20:08:21 64° SW 20:08:21 64° SW
Meteor 2-3 Rocket 4.0 20:11:51 10° NNW 20:17:03 68° WNW 20:17:03 68° WNW
Cosmos 2278 Rocket 4.3 20:33:13 10° NNW 20:35:28 17° N 20:35:28 17° N
ATLAS 5 CENTAUR R/B 3.8 20:33:51 10° NW 20:36:32 24° NNW 20:36:32 24° NNW
Cosmos 1844 Rocket 4.3 20:44:16 10° NNW 20:46:58 28° NNW 20:46:58 28° NNW
Cosmos 2263 Rocket 3.7 20:55:12 10° NW 20:58:58 33° WNW 20:58:58 33° WNW
CZ-4C R/B 3.5 21:09:44 10° NW 21:14:47 51° WNW 21:14:47 51° WNW
ATLAS 2AS CENTAUR R/B 4.3 21:35:20 10° NW 21:40:09 29° W 21:40:09 29° W
